sat.trackr.live / text

‹ back to catalog

STARLINK-35329

NORAD 65908 · 2025-224AC

PAYLOAD ACTIVE UNKNOWN

§ Identity

Operator
Country
US
Launch date
2025-10-07
Launch site
AFETR
Launch vehicle
Mass (kg)
RCS (m²)

Purposes: comms

External: N2YO · Heavens-Above · Gunter

§ Orbital elements

Epoch: 2026-09-20T07:20:22.085952Z

Period
93.85 min
Inclination
53.1591°
Eccentricity
0.0000894
Mean motion
15.34419184 rev/d
Perigee alt
462.0 km
Apogee alt
463.3 km
Semi-major
6,840.8 km
B*
4.3243e-4
RAAN
182.9199°
Arg perigee
116.1584°
Mean anomaly
243.9511°
Rev number
5,472

§ Raw data

STARLINK-353291 65908U 25224AC  26263.30581118  .00014271  00000+0  43243-3 0  99922 65908  53.1591 182.9199 0000894 116.1584 243.9511 15.34419184 54723

JSON: /api/v1/satellites/65908 · /tle

For live sub-satellite position, see the globe view (requires WebGL).

§ Visibility from observer

Set your observer location to see the next 7 days of passes ≥ 10°. The values pass through the URL so the page stays shareable.

No JS? Fill the form by hand. The geolocation button needs JavaScript.